Stations météo

réclame
Mon MeteoGroup
Vigo Peinador, Espagne (8045): Température de l'air & dewpoint: 22.05.2018 11:00:00 - 28.05.2018 11:00:00 (CEST)Vigo Peinador, Espagne (8045): Vitesse du vent: 22.05.2018 11:00:00 - 28.05.2018 11:00:00 (CEST)Vigo Peinador, Espagne (8045): Direction du vent: 22.05.2018 11:00:00 - 28.05.2018 11:00:00 (CEST)Vigo Peinador, Espagne (8045): reduced air pressure: 22.05.2018 11:00:00 - 28.05.2018 11:00:00 (CEST)Vigo Peinador, Espagne (8045): visibility: 22.05.2018 11:00:00 - 28.05.2018 11:00:00 (CEST)
Date & Time tt [°C] td [°C] ff [km/h] ff [knt] dd ppp [hPa] vv [km]
28.05.2018 11:00:00 16,4 11,3 11 6 NE 1016,9 10
28.05.2018 10:00:00 15,4 11,8 8 4 E 1017,1 10
28.05.2018 09:00:00 13,4 12,0 5 3 N 1017,4 10
28.05.2018 08:00:00 11,6 11,4 4 2 - 1017,7 10
28.05.2018 07:00:00 11,1 11,1 9 5 NNE 1017,3 10
28.05.2018 06:00:00 11,3 11,3 4 2 N 1016,9 10
28.05.2018 05:00:00 11,6 11,6 2 1 - 1017,4 10
28.05.2018 04:00:00 11,2 11,2 8 4 N 1017,8 10
28.05.2018 03:00:00 11,9 11,9 0 0 N 1017,8 10
28.05.2018 02:00:00 11,9 11,9 8 4 W 1018,3 10
28.05.2018 01:00:00 11,9 11,9 9 5 W 1018,4 10
28.05.2018 00:00:00 12,2 11,9 8 4 W 1018,6 10
27.05.2018 23:00:00 12,3 11,7 8 4 W 1018,0 20
27.05.2018 22:00:00 13,1 12,2 13 7 W 1017,5 10
27.05.2018 21:00:00 14,0 12,2 16 9 W 1017,1 10
27.05.2018 20:00:00 15,1 11,3 18 10 W 1016,8 25
27.05.2018 19:00:00 15,2 11,0 16 9 W 1016,6 10
27.05.2018 18:00:00 15,7 10,6 24 13 W 1016,7 10
27.05.2018 17:00:00 16,6 10,8 18 10 W 1016,5 10
27.05.2018 16:00:00 16,9 10,4 15 8 WNW 1016,7 10
27.05.2018 15:00:00 16,8 11,7 15 8 WNW 1017,0 10
27.05.2018 14:00:00 15,7 11,6 16 9 WNW 1017,1 10
27.05.2018 13:00:00 15,8 11,7 13 7 WNW 1017,2 9
27.05.2018 12:00:00 15,0 12,6 8 4 ENE 1017,2 8
27.05.2018 11:00:00 14,6 13,1 9 5 NNE 1016,8 5
27.05.2018 10:00:00 13,8 13,5 5 3 NE 1016,5 5
27.05.2018 09:00:00 12,5 12,5 4 2 - 1016,1 4,0
27.05.2018 08:00:00 12,0 12,0 4 2 - - 4,0
27.05.2018 07:00:00 11,8 11,8 8 4 NNE 1015,2 6
27.05.2018 06:00:00 11,9 11,9 8 4 NNE 1014,6 6
27.05.2018 05:00:00 12,3 12,3 0 0 N 1014,4 7
27.05.2018 04:00:00 12,4 12,4 4 2 - 1014,5 7
27.05.2018 03:00:00 12,4 12,4 8 4 NE 1014,5 7
27.05.2018 02:00:00 12,8 12,8 9 5 NNE 1014,7 7
27.05.2018 01:00:00 13,4 13,2 8 4 NNE 1014,8 8
27.05.2018 00:00:00 14,5 13,9 5 3 NE 1014,8 9
26.05.2018 23:00:00 16,2 14,7 4 2 NE 1014,2 20
26.05.2018 22:00:00 17,6 14,9 5 3 W 1013,3 10
26.05.2018 21:00:00 18,6 14,3 8 4 W 1013,1 10
26.05.2018 20:00:00 19,9 13,4 11 6 W 1012,6 20
26.05.2018 19:00:00 19,6 14,0 13 7 W 1012,5 10
26.05.2018 18:00:00 19,2 14,5 8 4 NNW 1012,7 10
26.05.2018 17:00:00 19,6 14,3 13 7 WNW 1012,5 20
26.05.2018 16:00:00 20,2 13,5 9 5 W 1012,7 10
26.05.2018 15:00:00 18,6 13,3 5 3 - 1012,9 10
26.05.2018 14:00:00 18,7 14,1 11 6 WNW 1013,0 15
26.05.2018 13:00:00 18,4 14,3 11 6 WSW 1013,2 10
26.05.2018 12:00:00 18,6 14,6 8 4 SW 1013,0 10
26.05.2018 11:00:00 16,9 14,1 4 2 E 1013,2 20
26.05.2018 10:00:00 16,7 14,6 5 3 E 1013,1 7
26.05.2018 09:00:00 14,7 14,7 4 2 E 1013,0 7
26.05.2018 08:00:00 12,5 12,5 0 0 N 1013,1 10
26.05.2018 07:00:00 12,0 12,0 4 2 ENE 1013,0 0,5
26.05.2018 06:00:00 12,4 12,4 8 4 NNE 1012,8 0,3
26.05.2018 05:00:00 12,6 12,6 8 4 NNE 1012,9 2,0
26.05.2018 04:00:00 12,8 12,8 2 1 - 1013,0 0,5
26.05.2018 03:00:00 13,1 13,1 5 3 NNE 1013,2 0,5
26.05.2018 02:00:00 13,1 13,1 8 4 NE 1013,5 0,5
26.05.2018 01:00:00 13,3 13,3 8 4 NNE 1013,6 1,5
26.05.2018 00:00:00 13,6 13,6 4 2 NE 1014,0 0,5
25.05.2018 23:00:00 13,9 13,9 5 3 NE 1013,8 0,7
25.05.2018 22:00:00 14,1 14,1 0 0 N 1013,4 4,0
25.05.2018 21:00:00 14,3 14,3 4 2 NE 1013,3 3,0
25.05.2018 20:00:00 14,4 14,4 4 2 - 1013,0 7
25.05.2018 19:00:00 14,3 14,3 4 2 S 1013,1 8
25.05.2018 18:00:00 13,7 13,7 15 8 S 1013,2 1,0
25.05.2018 17:00:00 16,5 15,5 13 7 SW 1012,6 7
25.05.2018 16:00:00 17,9 15,1 8 4 WNW 1012,2 10
25.05.2018 15:00:00 18,4 15,5 8 4 NNW 1012,1 10
25.05.2018 14:00:00 18,8 16,5 8 4 N 1012,3 10
25.05.2018 13:00:00 17,0 16,0 5 3 ENE 1012,9 10
25.05.2018 12:00:00 15,8 15,8 5 3 NE 1013,1 4,5
25.05.2018 11:00:00 15,5 15,5 5 3 NE 1013,2 3,5
25.05.2018 10:00:00 15,4 15,2 4 2 - 1012,7 10
25.05.2018 09:00:00 14,5 14,5 4 2 - 1012,6 10
25.05.2018 08:00:00 14,4 14,4 4 2 NW 1011,9 30
25.05.2018 07:00:00 14,2 14,2 4 2 - 1011,3 10
25.05.2018 06:00:00 14,7 14,7 0 0 N 1011,3 10
25.05.2018 05:00:00 14,9 14,9 4 2 SE 1011,5 20
25.05.2018 04:00:00 15,1 15,1 8 4 NNE 1011,2 10
25.05.2018 03:00:00 16,1 14,6 13 7 N 1011,9 10
25.05.2018 02:00:00 15,4 15,4 4 2 N 1013,0 12
25.05.2018 01:00:00 16,3 15,3 13 7 N 1013,0 10
25.05.2018 00:00:00 16,3 15,4 9 5 N 1013,3 10
24.05.2018 23:00:00 17,3 14,8 9 5 N 1012,7 10
24.05.2018 22:00:00 17,1 14,9 11 6 N 1012,6 10
24.05.2018 21:00:00 16,6 15,8 11 6 NNE 1013,2 10
24.05.2018 20:00:00 17,7 14,2 8 4 NNW 1013,2 25
24.05.2018 19:00:00 17,5 14,2 11 6 NW 1013,9 10
24.05.2018 18:00:00 18,3 16,6 11 6 N 1013,5 10
24.05.2018 17:00:00 19,3 17,9 4 2 NNE 1013,6 30
24.05.2018 16:00:00 19,3 16,8 16 9 SW 1013,5 10
24.05.2018 15:00:00 22,9 14,5 11 6 WSW 1012,8 10
24.05.2018 14:00:00 24,2 14,3 4 2 ENE 1012,5 45
24.05.2018 13:00:00 23,8 15,0 9 5 NE 1012,8 10
24.05.2018 12:00:00 23,8 14,4 5 3 S 1013,0 10
24.05.2018 11:00:00 20,7 13,0 8 4 ESE 1013,1 45
24.05.2018 10:00:00 17,5 12,1 5 3 SSW 1013,9 10
24.05.2018 09:00:00 16,0 11,0 5 3 SSW 1014,1 10
24.05.2018 08:00:00 14,8 10,6 5 3 SW 1014,4 40
24.05.2018 07:00:00 14,2 10,4 5 3 N 1014,2 10
24.05.2018 06:00:00 14,9 11,1 0 0 N 1014,4 10
24.05.2018 05:00:00 14,6 11,0 2 1 NNW 1014,9 30
24.05.2018 04:00:00 14,1 11,1 0 0 N 1015,3 10
24.05.2018 03:00:00 14,4 10,8 4 2 - 1015,4 10
24.05.2018 02:00:00 14,9 11,9 2 1 NNE 1015,6 10
24.05.2018 01:00:00 14,7 12,1 0 0 N 1015,8 10
24.05.2018 00:00:00 15,6 12,5 9 5 N 1016,1 10
23.05.2018 23:00:00 15,6 11,8 2 1 - 1016,2 10
23.05.2018 22:00:00 16,9 13,1 4 2 - 1015,8 10
23.05.2018 21:00:00 19,1 12,4 11 6 W 1015,5 10
23.05.2018 20:00:00 20,3 12,5 9 5 W 1014,9 10
23.05.2018 19:00:00 21,8 11,2 8 4 NW 1014,6 10
23.05.2018 18:00:00 22,1 9,9 18 10 W 1014,4 10
23.05.2018 17:00:00 22,0 12,9 18 10 W 1014,5 30
23.05.2018 16:00:00 22,0 10,6 16 9 W 1015,0 10
23.05.2018 15:00:00 21,9 9,5 16 9 WSW 1015,2 10
23.05.2018 14:00:00 21,2 11,2 13 7 W 1015,7 9
23.05.2018 13:00:00 20,3 14,2 9 5 NNE 1015,7 8
23.05.2018 12:00:00 19,9 13,4 5 3 SSW 1015,6 9
23.05.2018 11:00:00 17,9 13,1 5 3 S 1015,7 8
23.05.2018 10:00:00 16,2 12,4 4 2 - 1015,7 8
23.05.2018 09:00:00 13,6 12,8 11 6 SSW 1015,8 9
23.05.2018 08:00:00 12,2 12,0 13 7 SSW 1015,6 5
23.05.2018 07:00:00 12,5 11,9 2 1 - 1015,3 9
23.05.2018 06:00:00 12,9 12,3 8 4 SW 1015,1 8
23.05.2018 05:00:00 12,2 11,9 5 3 WSW 1015,1 5
23.05.2018 04:00:00 11,9 11,9 5 3 N 1015,5 8
23.05.2018 03:00:00 12,1 10,4 0 0 N 1015,9 10
23.05.2018 02:00:00 12,4 11,8 4 2 WSW 1016,2 15
23.05.2018 01:00:00 12,6 12,4 8 4 N 1016,3 10
23.05.2018 00:00:00 12,8 12,0 8 4 WNW 1016,6 10
22.05.2018 23:00:00 13,6 12,1 9 5 W 1016,4 10
22.05.2018 22:00:00 14,3 12,0 11 6 W 1015,7 10
22.05.2018 21:00:00 15,5 12,1 16 9 W 1015,0 10
22.05.2018 20:00:00 17,3 11,4 18 10 W 1014,6 25
22.05.2018 19:00:00 18,9 11,9 16 9 WSW 1014,3 10
22.05.2018 18:00:00 20,1 11,8 18 10 W 1013,8 10
22.05.2018 17:00:00 19,4 11,4 22 12 W 1014,0 10
22.05.2018 16:00:00 21,1 12,8 22 12 WSW 1013,7 10
22.05.2018 15:00:00 21,6 13,7 18 10 WSW 1013,7 10
22.05.2018 14:00:00 21,3 12,7 16 9 WSW 1013,9 20
22.05.2018 13:00:00 20,9 13,1 11 6 WSW 1013,8 10
22.05.2018 12:00:00 20,1 13,5 4 2 - 1013,8 10
22.05.2018 11:00:00 17,2 13,1 8 4 SSW 1014,0 10

tt = Température de l'air
td = dewpoint
ff = Vitesse du vent
dd = Direction du vent
ppp = reduced air pressure
vv = visibility

stations d'obs. à proximité